Tracking 29892 objects as of 21-Nov-2024
HD Live streaming from Space Station
objects crossing your sky now

STARLINK-4180

Track STARLINK-4180 now!
10-day predictions
STARLINK-4180 is classified as:


NORAD ID: 53278
Int'l Code: 2022-086AN
Perigee: 545.7 km
Apogee: 547.9 km
Inclination: 53.2 °
Period: 95.4 minutes
Semi major axis: 6917 km
RCS: Unknown
Launch date: July 24, 2022
Source: United States (US)
Launch site: AIR FORCE EASTERN TEST RANGE (AFETR)
Your satellite tracking list
Your tracking list is empty




NASA's NSSDC Master Catalog

Two Line Element Set (TLE):
1 53278U 22086AN  24325.54203559  .00003387  00000-0  23070-3 0  9998
2 53278  53.2165 152.6526 0001606  69.0816 291.0348 15.08857682129446
Source of the keplerian elements: AFSPC